EW7966 Weather Reports


Display with metric or nautical units.
time (UTC)temp
F
wind
direction
speed
MPH
gust
MPH
rain 1hr
in
rain 24hr
in
rain mn
in
humidity
%
barometer
mb
20260904123505 59 159 3.0 5.0 0.00 0.00 0.00 42 1017.4
20260904123006 60 262 1.0 3.0 0.00 0.00 0.00 42 1017.3
20260904123004 60 262 1.0 3.0 0.00 0.00 0.00 42 1000.6
20260904122507 60 262 2.0 3.0 0.00 0.00 0.00 41 1017.2
20260904122007 60 262 1.0 4.0 0.00 0.00 0.00 40 1017.0
20260904121505 60 262 2.0 7.0 0.00 0.00 0.00 40 1016.9
20260904121006 60 254 4.0 7.0 0.00 0.00 0.00 41 1016.9
20260904120008 60 259 3.0 6.0 0.00 0.00 0.00 41 1016.8
20260904120005 60 259 3.0 6.0 0.00 0.00 0.00 41 1000.1
20260904114505 59 259 3.0 4.0 0.00 0.00 0.00 43 1016.9
20260904114006 59 236 2.0 6.0 0.00 0.00 0.00 43 1016.8
20260904113004 60 225 4.0 8.0 0.00 0.00 0.00 42 1000.1
20260904112505 60 232 4.0 7.0 0.00 0.00 0.00 42 1016.7
20260904112006 60 232 4.0 7.0 0.00 0.00 0.00 42 1016.7
20260904111505 60 235 3.0 7.0 0.00 0.00 0.00 42 1016.7
20260904111503 60 235 3.0 7.0 0.00 0.00 0.00 42 1000.1
20260904111006 61 232 3.0 6.0 0.00 0.00 0.00 42 1016.7
20260904110505 60 292 2.0 7.0 0.00 0.00 0.00 43 1016.7
20260904110007 59 291 3.0 7.0 0.00 0.00 0.00 43 1016.7
20260904110004 59 291 3.0 7.0 0.00 0.00 0.00 43 1000.1
20260904105506 59 294 2.0 4.0 0.00 0.00 0.00 46 1016.7
20260904104505 59 219 2.0 4.0 0.00 0.00 0.00 45 1016.6
20260904103959 59 219 1.0 3.0 0.00 0.00 0.00 46 1016.4
20260904103506 59 219 0.0 3.0 0.00 0.00 0.00 47 1016.4
20260904103005 59 219 0.0 4.0 0.00 0.00 0.00 48 999.6
20260904102005 59 219 1.0 3.0 0.00 0.00 0.00 49 1016.1
20260904101505 60 219 1.0 3.0 0.00 0.00 0.00 49 1016.0
20260904101503 60 219 0.0 3.0 0.00 0.00 0.00 49 999.3
20260904101006 60 219 1.0 3.0 0.00 0.00 0.00 50 1016.0
20260904100505 60 219 1.0 4.0 0.00 0.00 0.00 50 1015.9
20260904100006 60 219 2.0 4.0 0.00 0.00 0.00 50 1015.8
20260904100004 60 219 2.0 4.0 0.00 0.00 0.00 50 999.2
20260904095504 60 173 1.0 3.0 0.00 0.00 0.00 50 1015.8
20260904095007 61 216 1.0 4.0 0.00 0.00 0.00 51 1015.8
20260904094505 61 226 1.0 4.0 0.00 0.00 0.00 51 1015.8
20260904094006 61 220 2.0 4.0 0.00 0.00 0.00 51 1015.8
20260904093505 61 223 2.0 5.0 0.00 0.00 0.00 53 1015.8
20260904093008 61 226 2.0 6.0 0.00 0.00 0.00 55 1015.7
20260904093004 61 226 2.0 6.0 0.00 0.00 0.00 55 999.0
20260904092505 60 217 1.0 6.0 0.00 0.00 0.00 56 1015.7
20260904092006 60 209 1.0 5.0 0.00 0.00 0.00 57 1015.6
20260904091505 60 206 2.0 3.0 0.00 0.00 0.00 58 1015.6
20260904091006 60 207 2.0 5.0 0.00 0.00 0.00 58 1015.5
20260904090505 60 207 3.0 6.0 0.00 0.00 0.00 58 1015.5
20260904090007 60 216 2.0 6.0 0.00 0.00 0.00 58 1015.4
20260904090005 60 216 2.0 6.0 0.00 0.00 0.00 58 998.7
20260904085007 61 188 0.0 3.0 0.00 0.00 0.00 57 1015.5
20260904084505 61 188 2.0 3.0 0.00 0.00 0.00 56 1015.4
20260904084007 62 188 2.0 4.0 0.00 0.00 0.00 55 1015.5
20260904083505 63 188 1.0 6.0 0.00 0.00 0.00 54 1015.6
20260904083006 63 174 4.0 6.0 0.00 0.00 0.00 54 1015.5
20260904083003 63 174 3.0 6.0 0.00 0.00 0.00 54 998.8
20260904082505 63 175 3.0 6.0 0.00 0.00 0.00 54 1015.5
20260904082006 63 190 3.0 4.0 0.00 0.00 0.00 54 1015.6
20260904081507 63 192 1.0 5.0 0.00 0.00 0.00 53 998.9
20260904080505 63 175 2.0 5.0 0.00 0.00 0.00 52 1015.7
20260904080004 63 161 1.0 6.0 0.00 0.00 0.00 53 999.0
20260904075504 63 163 3.0 6.0 0.00 0.00 0.00 53 1015.7
20260904075006 64 178 2.0 6.0 0.00 0.00 0.00 52 1015.7
20260904074506 64 202 3.0 5.0 0.00 0.00 0.00 51 1015.8
20260904074503 64 202 3.0 5.0 0.00 0.00 0.00 51 999.2
20260904074006 66 204 2.0 6.0 0.00 0.00 0.00 49 1015.9
20260904073505 66 204 3.0 9.0 0.00 0.00 0.00 49 1015.9
20260904073008 67 178 5.0 9.0 0.00 0.00 0.00 48 999.3
20260904072505 68 142 6.0 14.0 0.00 0.00 0.00 46 1016.0
20260904072007 68 178 9.0 17.0 0.00 0.00 0.00 46 1015.9
20260904071507 68 157 11.0 17.0 0.00 0.00 0.00 46 1015.7
20260904071504 68 157 10.0 17.0 0.00 0.00 0.00 46 999.1
20260904071007 68 158 11.0 15.0 0.00 0.00 0.00 46 1015.8
20260904070008 69 163 9.0 15.0 0.00 0.00 0.00 45 1015.8
20260904070005 69 163 8.0 15.0 0.00 0.00 0.00 45 999.2
20260904065507 68 153 9.0 14.0 0.00 0.00 0.00 45 1015.9
20260904065007 68 169 10.0 14.0 0.00 0.00 0.00 45 1015.9
20260904064505 69 158 8.0 14.0 0.00 0.00 0.00 45 1015.9
20260904064502 69 158 8.0 14.0 0.00 0.00 0.00 45 999.4
20260904064006 69 166 9.0 16.0 0.00 0.00 0.00 44 1015.9
20260904063508 69 154 10.0 16.0 0.00 0.00 0.00 44 1015.9
20260904063007 69 159 8.0 14.0 0.00 0.00 0.00 43 1015.9
20260904063004 69 159 8.0 14.0 0.00 0.00 0.00 43 999.4
20260904062505 70 168 8.0 14.0 0.00 0.00 0.00 43 1015.9
20260904062007 70 168 9.0 16.0 0.00 0.00 0.00 42 1015.9
20260904061509 70 150 9.0 16.0 0.00 0.00 0.00 42 999.5
20260904061506 70 150 9.0 16.0 0.00 0.00 0.00 42 1016.0
20260904060007 71 158 11.0 17.0 0.00 0.00 0.00 40 1015.9
20260904060004 71 158 11.0 17.0 0.00 0.00 0.00 40 999.5
20260904055504 71 148 10.0 17.0 0.00 0.00 0.00 40 1016.0
20260904055005 71 164 12.0 17.0 0.00 0.00 0.00 40 1016.0
20260904054506 71 174 11.0 17.0 0.00 0.00 0.00 39 999.6
20260904054504 71 174 11.0 17.0 0.00 0.00 0.00 39 1016.0
20260904054005 71 149 12.0 18.0 0.00 0.00 0.00 39 1016.0
20260904053504 71 151 10.0 17.0 0.00 0.00 0.00 39 1016.0
20260904053005 71 147 11.0 17.0 0.00 0.00 0.00 39 1016.0
20260904053002 71 169 11.0 17.0 0.00 0.00 0.00 39 999.6
20260904052505 71 163 11.0 16.0 0.00 0.00 0.00 38 1016.0
20260904052005 71 141 12.0 19.0 0.00 0.00 0.00 38 1016.0
20260904051504 72 157 12.0 19.0 0.00 0.00 0.00 37 1016.0
20260904051502 72 157 12.0 19.0 0.00 0.00 0.00 37 999.7
20260904051004 72 174 13.0 17.0 0.00 0.00 0.00 37 1016.0
20260904050006 72 174 12.0 18.0 0.00 0.00 0.00 36 1016.0
20260904050003 72 174 12.0 18.0 0.00 0.00 0.00 36 999.8
20260904045004 72 163 13.0 18.0 0.00 0.00 0.00 36 1016.0
20260904044504 72 171 13.0 18.0 0.00 0.00 0.00 36 1016.1
20260904044005 72 175 10.0 17.0 0.00 0.00 0.00 36 1016.1
20260904043504 72 143 12.0 19.0 0.00 0.00 0.00 36 1016.1
20260904043004 72 155 13.0 23.0 0.00 0.00 0.00 36 1016.2
20260904043002 72 155 12.0 23.0 0.00 0.00 0.00 36 1000.0
20260904042006 71 168 12.0 17.0 0.00 0.00 0.00 37 1016.2
20260904041504 71 181 11.0 15.0 0.00 0.00 0.00 38 1016.3
20260904041005 71 164 10.0 16.0 0.00 0.00 0.00 39 1016.4
20260904040008 71 159 7.0 15.0 0.00 0.00 0.00 38 1000.3
20260904035505 71 167 9.0 14.0 0.00 0.00 0.00 38 1016.5
20260904034558 72 158 11.0 19.0 0.00 0.00 0.00 37 1000.4
20260904034500 72 153 12.0 19.0 0.00 0.00 0.00 37 1016.5
20260904034004 72 146 13.0 19.0 0.00 0.00 0.00 37 1016.4
20260904033504 72 152 11.0 20.0 0.00 0.00 0.00 37 1016.3
20260904033002 72 162 11.0 18.0 0.00 0.00 0.00 36 1000.2
20260904032503 73 160 11.0 17.0 0.00 0.00 0.00 35 1016.1
20260904031505 73 148 12.0 18.0 0.00 0.00 0.00 34 1016.0
20260904031503 73 148 12.0 18.0 0.00 0.00 0.00 34 1000.0
20260904031005 73 162 11.0 19.0 0.00 0.00 0.00 33 1015.9
20260904030504 73 169 10.0 19.0 0.00 0.00 0.00 32 1015.9
20260904030006 74 154 11.0 16.0 0.00 0.00 0.00 29 1015.9
20260904030002 74 154 10.0 16.0 0.00 0.00 0.00 29 1000.0
20260904024503 75 172 10.0 15.0 0.00 0.00 0.00 25 1015.7
20260904024004 75 163 10.0 15.0 0.00 0.00 0.00 25 1015.6
20260904023004 75 191 9.0 14.0 0.00 0.00 0.00 25 1015.5
20260904023002 75 191 9.0 14.0 0.00 0.00 0.00 25 999.5
20260904022006 75 171 9.0 14.0 0.00 0.00 0.00 26 1015.4
20260904021504 75 169 9.0 15.0 0.00 0.00 0.00 26 1015.4
20260904021004 75 194 10.0 15.0 0.00 0.00 0.00 26 1015.3
20260904020504 75 153 9.0 15.0 0.00 0.00 0.00 26 1015.3
20260904020006 75 172 9.0 14.0 0.00 0.00 0.00 26 1015.3
20260904020003 75 172 9.0 14.0 0.00 0.00 0.00 26 999.3
20260904015503 75 165 8.0 12.0 0.00 0.00 0.00 26 1015.2
20260904014502 75 163 8.0 11.0 0.00 0.00 0.00 27 999.2
20260904014005 75 159 8.0 11.0 0.00 0.00 0.00 27 1015.2
20260904013505 76 173 7.0 11.0 0.00 0.00 0.00 26 1015.1
20260904013002 76 194 8.0 12.0 0.00 0.00 0.00 26 999.1
20260904012503 77 167 9.0 12.0 0.00 0.00 0.00 25 1015.0
20260904012004 78 171 8.0 11.0 0.00 0.00 0.00 25 1014.9
20260904011504 78 167 8.0 14.0 0.00 0.00 0.00 24 998.9
20260904011005 79 153 9.0 14.0 0.00 0.00 0.00 24 1014.9
20260904010505 79 184 8.0 15.0 0.00 0.00 0.00 23 1014.9
20260904010007 79 176 8.0 15.0 0.00 0.00 0.00 23 1014.8
20260904010003 79 176 8.0 15.0 0.00 0.00 0.00 23 998.8
20260904005504 80 158 9.0 12.0 0.00 0.00 0.00 23 1014.8
20260904005005 80 164 9.0 14.0 0.00 0.00 0.00 23 1014.9
20260904004503 81 157 8.0 18.0 0.00 0.00 0.00 23 1014.9
20260904004005 81 186 10.0 16.0 0.00 0.00 0.00 22 1014.9
20260904003504 81 165 10.0 16.0 0.00 0.00 0.00 23 1014.9
20260904003002 82 155 10.0 17.0 0.00 0.00 0.00 22 999.0
20260904002005 82 166 12.0 18.0 0.00 0.00 0.00 22 1014.9
20260904001503 83 163 12.0 18.0 0.00 0.00 0.00 21 1014.9
20260904001501 83 163 11.0 18.0 0.00 0.00 0.00 21 999.0
20260904001006 83 182 12.0 18.0 0.00 0.00 0.00 21 1014.9
20260904000008 83 119 13.0 18.0 0.00 0.00 0.00 21 1015.0
20260904000003 83 119 13.0 18.0 0.00 0.00 0.00 21 999.1
20260903234502 84 202 6.0 20.0 0.00 0.00 0.00 19 998.9
20260903234004 84 145 12.0 20.0 0.00 0.00 0.00 21 1014.9
20260903233503 84 135 12.0 16.0 0.00 0.00 0.00 21 1015.0
20260903233006 84 166 10.0 16.0 0.00 0.00 0.00 19 1015.0
20260903233002 84 166 10.0 16.0 0.00 0.00 0.00 19 999.1
20260903232005 84 131 9.0 14.0 0.00 0.00 0.00 20 1015.0
20260903231502 84 126 8.0 14.0 0.00 0.00 0.00 20 999.1
20260903231006 84 131 8.0 14.0 0.00 0.00 0.00 20 1015.1
20260903230504 84 130 9.0 17.0 0.00 0.00 0.00 19 1015.0
20260903230006 85 137 10.0 17.0 0.00 0.00 0.00 19 999.1
20260903225504 84 150 11.0 14.0 0.00 0.00 0.00 19 1015.1
20260903225006 84 120 7.0 15.0 0.00 0.00 0.00 19 1015.2
20260903224504 84 149 8.0 15.0 0.00 0.00 0.00 18 1015.2
20260903224502 84 149 7.0 15.0 0.00 0.00 0.00 18 999.2
20260903224005 84 171 9.0 16.0 0.00 0.00 0.00 19 1015.4
20260903223503 84 121 10.0 16.0 0.00 0.00 0.00 18 1015.3
20260903223005 84 143 12.0 17.0 0.00 0.00 0.00 18 1015.3
20260903223003 84 143 12.0 17.0 0.00 0.00 0.00 18 999.3
20260903222503 84 133 13.0 19.0 0.00 0.00 0.00 20 1015.3
20260903222006 84 142 14.0 19.0 0.00 0.00 0.00 20 1015.4
20260903221504 84 156 13.0 21.0 0.00 0.00 0.00 20 1015.4
20260903221502 84 156 13.0 21.0 0.00 0.00 0.00 20 999.4
20260903221005 83 122 10.0 21.0 0.00 0.00 0.00 21 1015.5
20260903220505 84 106 10.0 19.0 0.00 0.00 0.00 22 1015.5
20260903220006 83 121 12.0 16.0 0.00 0.00 0.00 22 1015.6
20260903220002 83 121 12.0 16.0 0.00 0.00 0.00 22 999.6
20260903215504 83 122 10.0 16.0 0.00 0.00 0.00 20 1015.7
20260903215004 83 121 5.0 13.0 0.00 0.00 0.00 22 1015.7
20260903214502 83 69 8.0 15.0 0.00 0.00 0.00 21 999.8
20260903214005 83 95 9.0 15.0 0.00 0.00 0.00 21 1015.9
20260903213503 83 158 12.0 16.0 0.00 0.00 0.00 21 1015.9
20260903213005 83 133 6.0 11.0 0.00 0.00 0.00 22 1000.0
20260903212006 82 107 4.0 15.0 0.00 0.00 0.00 21 1016.0
20260903211504 83 117 7.0 15.0 0.00 0.00 0.00 21 1016.1
20260903211502 83 117 7.0 15.0 0.00 0.00 0.00 21 1000.2
20260903211004 83 101 10.0 13.0 0.00 0.00 0.00 23 1016.2
20260903210504 83 191 7.0 20.0 0.00 0.00 0.00 21 1016.2
20260903210006 83 138 9.0 20.0 0.00 0.00 0.00 22 1016.3
20260903210002 83 138 9.0 20.0 0.00 0.00 0.00 22 1000.3
20260903205504 83 115 8.0 14.0 0.00 0.00 0.00 23 1016.4
20260903204503 82 138 6.0 17.0 0.00 0.00 0.00 24 1016.5
20260903204005 83 94 13.0 17.0 0.00 0.00 0.00 21 1016.5
20260903203004 83 154 8.0 14.0 0.00 0.00 0.00 22 1000.8
20260903202504 83 145 11.0 14.0 0.00 0.00 0.00 23 1016.6
20260903202006 82 161 9.0 16.0 0.00 0.00 0.00 23 1016.6
20260903201504 82 151 10.0 16.0 0.00 0.00 0.00 21 1016.7
20260903200504 82 135 10.0 18.0 0.00 0.00 0.00 23 1016.7
20260903200008 82 124 14.0 18.0 0.00 0.00 0.00 23 1001.1
20260903195005 82 144 9.0 17.0 0.00 0.00 0.00 25 1016.9
20260903194504 81 97 10.0 17.0 0.00 0.00 0.00 25 1016.9
20260903194502 81 97 10.0 17.0 0.00 0.00 0.00 25 1001.3
20260903194005 81 111 11.0 17.0 0.00 0.00 0.00 24 1016.9
20260903193504 81 159 5.0 18.0 0.00 0.00 0.00 24 1017.0
20260903193005 81 140 11.0 17.0 0.00 0.00 0.00 24 1017.1
20260903193002 81 140 11.0 17.0 0.00 0.00 0.00 24 1001.5
20260903192503 81 128 12.0 16.0 0.00 0.00 0.00 24 1017.2
20260903192006 82 190 8.0 15.0 0.00 0.00 0.00 25 1017.2
20260903191503 82 144 7.0 15.0 0.00 0.00 0.00 24 1017.3
20260903191004 81 116 10.0 18.0 0.00 0.00 0.00 25 1017.3
20260903190002 82 180 8.0 16.0 0.00 0.00 0.00 22 1001.8
20260903185504 82 205 7.0 11.0 0.00 0.00 0.00 21 1017.5
20260903185005 81 205 5.0 12.0 0.00 0.00 0.00 22 1017.4
20260903184502 81 231 3.0 12.0 0.00 0.00 0.00 22 1002.0
20260903184006 82 254 5.0 11.0 0.00 0.00 0.00 24 1017.7
20260903183505 82 266 4.0 11.0 0.00 0.00 0.00 24 1017.8
20260903183007 81 211 6.0 12.0 0.00 0.00 0.00 24 1017.8
20260903183003 81 211 5.0 12.0 0.00 0.00 0.00 24 1002.2
20260903182507 81 239 5.0 12.0 0.00 0.00 0.00 22 1018.0
20260903182005 80 232 4.0 11.0 0.00 0.00 0.00 25 1018.0
20260903181503 80 294 4.0 14.0 0.00 0.00 0.00 24 1018.0
20260903180504 80 222 3.0 9.0 0.00 0.00 0.00 25 1018.2
20260903180007 80 155 6.0 10.0 0.00 0.00 0.00 24 1018.3
20260903180003 80 155 6.0 10.0 0.00 0.00 0.00 24 1002.7
20260903175503 79 212 3.0 13.0 0.00 0.00 0.00 26 1018.3
20260903175005 79 218 5.0 13.0 0.00 0.00 0.00 24 1018.4
20260903174506 79 241 6.0 13.0 0.00 0.00 0.00 25 1018.4
20260903174006 79 309 4.0 7.0 0.00 0.00 0.00 25 1018.4
20260903173504 79 210 5.0 10.0 0.00 0.00 0.00 25 1018.5
20260903173001 79 280 2.0 14.0 0.00 0.00 0.00 26 1002.8
20260903172504 79 258 8.0 18.0 0.00 0.00 0.00 25 1018.6
20260903172005 79 254 4.0 18.0 0.00 0.00 0.00 26 1018.5
20260903171504 79 306 6.0 11.0 0.00 0.00 0.00 26 1002.8
20260903171005 79 227 4.0 12.0 0.00 0.00 0.00 26 1018.5
20260903170504 79 311 4.0 8.0 0.00 0.00 0.00 26 1018.5
20260903170006 78 276 3.0 13.0 0.00 0.00 0.00 26 1018.5
20260903170002 78 276 2.0 13.0 0.00 0.00 0.00 26 1002.9
20260903164502 77 315 4.0 10.0 0.00 0.00 0.00 26 1002.9
20260903163006 77 269 4.0 12.0 0.00 0.00 0.00 28 1018.4
20260903163001 77 269 4.0 12.0 0.00 0.00 0.00 28 1002.8
20260903162504 77 307 5.0 12.0 0.00 0.00 0.00 26 1018.3
20260903161504 77 260 4.0 14.0 0.00 0.00 0.00 29 1018.3
20260903161502 77 260 3.0 14.0 0.00 0.00 0.00 29 1002.7
20260903161004 77 289 6.0 12.0 0.00 0.00 0.00 27 1018.3
20260903160504 76 313 2.0 12.0 0.00 0.00 0.00 27 1018.4
20260903160008 76 250 5.0 12.0 0.00 0.00 0.00 29 1002.8
20260903155005 76 280 4.0 13.0 0.00 0.00 0.00 31 1018.4
20260903154602 76 269 4.0 13.0 0.00 0.00 0.00 30 1002.9
20260903153505 75 253 8.0 13.0 0.00 0.00 0.00 32 1018.4
20260903153101 75 207 5.0 10.0 0.00 0.00 0.00 31 1002.9
20260903153001 75 266 4.0 10.0 0.00 0.00 0.00 32 1018.4
20260903152504 75 247 6.0 10.0 0.00 0.00 0.00 31 1018.4
20260903152007 75 313 5.0 12.0 0.00 0.00 0.00 33 1018.4
20260903151508 74 262 6.0 12.0 0.00 0.00 0.00 32 1018.5
20260903151505 74 262 6.0 12.0 0.00 0.00 0.00 32 1003.0
20260903151006 74 313 5.0 11.0 0.00 0.00 0.00 34 1018.5
20260903150505 74 272 7.0 10.0 0.00 0.00 0.00 33 1018.5
20260903150014 73 288 2.0 11.0 0.00 0.00 0.00 36 1003.2
20260903150008 73 288 3.0 11.0 0.00 0.00 0.00 36 1018.6
20260903145007 73 261 5.0 10.0 0.00 0.00 0.00 34 1018.6
20260903144507 72 261 3.0 9.0 0.00 0.00 0.00 35 1003.2
20260903144006 72 270 4.0 9.0 0.00 0.00 0.00 35 1018.6
20260903143506 72 250 5.0 12.0 0.00 0.00 0.00 34 1018.5
20260903143014 72 247 3.0 12.0 0.00 0.00 0.00 34 1003.2
20260903143007 72 247 4.0 12.0 0.00 0.00 0.00 34 1018.5
20260903142507 71 281 4.0 9.0 0.00 0.00 0.00 35 1018.6
20260903142000 71 211 5.0 9.0 0.00 0.00 0.00 36 1018.5
20260903141507 71 220 3.0 7.0 0.00 0.00 0.00 37 1003.3
20260903140506 69 252 3.0 11.0 0.00 0.00 0.00 37 1018.5
20260903140008 69 257 2.0 7.0 0.00 0.00 0.00 42 1018.5
20260903140004 69 257 1.0 7.0 0.00 0.00 0.00 42 1003.4
20260903135507 68 203 3.0 7.0 0.00 0.00 0.00 40 1018.4
20260903135008 68 188 1.0 5.0 0.00 0.00 0.00 42 1018.5
20260903134506 67 188 3.0 5.0 0.00 0.00 0.00 40 1018.4
20260903134504 67 188 3.0 5.0 0.00 0.00 0.00 40 1003.3
20260903134007 67 188 3.0 4.0 0.00 0.00 0.00 41 1018.3
20260903133506 66 218 2.0 6.0 0.00 0.00 0.00 42 1018.2
20260903133007 66 187 3.0 8.0 0.00 0.00 0.00 41 1018.1
20260903133004 66 187 3.0 8.0 0.00 0.00 0.00 41 1003.0
20260903132007 63 207 4.0 7.0 0.00 0.00 0.00 45 1018.0
20260903131503 63 236 2.0 7.0 0.00 0.00 0.00 45 1002.9
20260903131007 62 184 1.0 5.0 0.00 0.00 0.00 47 1018.0
20260903130505 61 194 4.0 5.0 0.00 0.00 0.00 46 1018.0
20260903130010 61 197 3.0 5.0 0.00 0.00 0.00 47 1018.0
20260903130007 61 197 2.0 5.0 0.00 0.00 0.00 47 1002.9
20260903125506 61 245 2.0 6.0 0.00 0.00 0.00 46 1017.9
20260903125007 61 205 2.0 6.0 0.00 0.00 0.00 45 1017.7
20260903124506 62 173 2.0 4.0 0.00 0.00 0.00 43 1017.8
20260903124504 62 173 1.0 4.0 0.00 0.00 0.00 43 1002.7
20260903124007 64 173 2.0 4.0 0.00 0.00 0.00 42 1017.8